DW5164 Weather Reports


time (UTC)temp
C
wind
direction
speed
KPH
gust
KPH
rain 1hr
cm
rain 24hr
cm
rain mn
cm
humidity
%
barometer
mb
20260504043525 11 190 1.6 3.2 0.00 0.00 0.00 79 1015.8
20260504043025 11 190 1.6 3.2 0.00 0.00 0.00 80 1015.8
20260504042525 11 190 3.2 4.8 0.00 0.00 0.00 81 1015.8
20260504042025 11 167 1.6 3.2 0.00 0.00 0.00 80 1015.8
20260504041525 11 163 0.0 1.6 0.00 0.00 0.00 80 1015.8
20260504041027 11 163 1.6 3.2 0.00 0.00 0.00 80 1015.7
20260504040525 11 163 1.6 3.2 0.00 0.00 0.00 80 1015.7
20260504040027 11 163 0.0 0.0 0.00 0.00 0.00 79 1015.6
20260504035025 11 163 0.0 0.0 0.00 0.00 0.00 78 1015.6
20260504034525 11 163 0.0 0.0 0.00 0.00 0.00 79 1015.6
20260504034025 11 163 0.0 0.0 0.00 0.00 0.00 79 1015.6
20260504033527 12 163 0.0 0.0 0.00 0.00 0.00 77 1015.6
20260504033025 12 163 0.0 1.6 0.00 0.00 0.00 76 1015.5
20260504032525 12 170 0.0 0.0 0.00 0.00 0.00 76 1015.5
20260504032025 12 170 0.0 0.0 0.00 0.00 0.00 77 1015.5
20260504031525 12 170 0.0 0.0 0.00 0.00 0.00 76 1015.5
20260504031025 12 170 0.0 0.0 0.00 0.00 0.00 75 1015.5
20260504030525 12 170 0.0 0.0 0.00 0.00 0.00 76 1015.5
20260504030025 12 169 0.0 0.0 0.00 0.00 0.00 75 1015.5
20260504025525 12 170 0.0 1.6 0.00 0.00 0.00 75 1015.5
20260504024524 12 169 1.6 3.2 0.00 0.00 0.00 73 1015.6
20260504023541 13 169 0.0 1.6 0.00 0.00 0.00 70 1015.6
20260504023025 13 268 0.0 0.0 0.00 0.00 0.00 69 1015.6
20260504022525 13 268 0.0 0.0 0.00 0.00 0.00 68 1015.6
20260504022026 13 268 1.6 3.2 0.00 0.00 0.00 68 1015.5
20260504021524 14 268 1.6 3.2 0.00 0.00 0.00 67 1015.6
20260504021025 14 268 1.6 3.2 0.00 0.00 0.00 66 1015.6
20260504020525 14 268 1.6 3.2 0.00 0.00 0.00 65 1015.5
20260504015527 15 278 4.8 8.0 0.00 0.00 0.00 63 1015.5
20260504015027 15 280 3.2 4.8 0.00 0.00 0.00 63 1015.5
20260504014524 15 293 3.2 4.8 0.00 0.00 0.00 64 1015.5
20260504014027 15 290 3.2 4.8 0.00 0.00 0.00 64 1015.5
20260504013026 15 284 3.2 8.0 0.00 0.00 0.00 64 1015.6
20260504012525 15 288 3.2 4.8 0.00 0.00 0.00 65 1015.6
20260504012026 15 310 1.6 3.2 0.00 0.00 0.00 65 1015.6
20260504011525 15 288 4.8 4.8 0.00 0.00 0.00 65 1015.7
20260504011027 15 263 4.8 4.8 0.00 0.00 0.00 65 1015.7
20260504010528 15 272 4.8 4.8 0.00 0.00 0.00 65 1015.7
20260504010025 15 267 3.2 4.8 0.00 0.00 0.00 66 1015.7
20260504005525 15 259 4.8 4.8 0.00 0.00 0.00 66 1015.8
20260504005024 15 261 3.2 4.8 0.00 0.00 0.00 66 1015.8
20260504004025 15 273 3.2 4.8 0.00 0.00 0.00 65 1015.8
20260504003524 15 272 3.2 4.8 0.00 0.00 0.00 64 1015.9
20260504002524 16 254 1.6 3.2 0.00 0.00 0.00 65 1016.0
20260504001525 16 239 1.6 3.2 0.00 0.00 0.00 66 1016.1
20260504001025 15 239 1.6 3.2 0.00 0.00 0.00 67 1016.1
20260504000524 15 248 1.6 4.8 0.00 0.00 0.00 70 1016.1
20260504000025 15 240 3.2 4.8 0.00 0.00 0.00 70 1016.1
20260503235524 15 256 0.0 3.2 0.00 0.00 0.00 70 1016.1
20260503235027 15 265 0.0 0.0 0.00 0.00 0.00 69 1016.2
20260503234524 16 265 0.0 0.0 0.00 0.00 0.00 67 1016.2
20260503234024 16 265 0.0 1.6 0.00 0.00 0.00 65 1016.2
20260503233524 16 265 3.2 4.8 0.00 0.00 0.00 66 1016.2
20260503232025 16 288 0.0 0.0 0.00 0.00 0.00 64 1016.1
20260503231524 17 288 0.0 1.6 0.00 0.00 0.00 62 1016.2
20260503231024 17 291 3.2 4.8 0.00 0.00 0.00 62 1016.2
20260503230525 17 301 1.6 4.8 0.00 0.00 0.00 63 1016.2
20260503230024 17 327 1.6 3.2 0.00 0.00 0.00 62 1016.2
20260503225524 17 329 1.6 4.8 0.00 0.00 0.00 62 1016.3
20260503224524 17 31 3.2 4.8 0.00 0.00 0.00 63 1016.3
20260503224024 17 23 1.6 3.2 0.00 0.00 0.00 62 1016.3
20260503223024 17 275 4.8 4.8 0.00 0.00 0.00 62 1016.1
20260503222524 17 265 4.8 4.8 0.00 0.00 0.00 62 1016.1
20260503222026 17 267 4.8 4.8 0.00 0.00 0.00 63 1016.1
20260503221039 17 256 3.2 4.8 0.00 0.00 0.00 63 1016.0
20260503220540 17 241 3.2 4.8 0.00 0.00 0.00 63 1016.0
20260503220025 17 255 3.2 4.8 0.00 0.00 0.00 63 1016.0
20260503215025 17 250 4.8 4.8 0.00 0.00 0.00 63 1016.0
20260503214528 17 240 3.2 4.8 0.00 0.00 0.00 64 1015.9
20260503214024 16 245 4.8 4.8 0.00 0.00 0.00 64 1015.9
20260503213524 16 247 3.2 4.8 0.00 0.00 0.00 65 1015.8
20260503213024 17 229 1.6 4.8 0.00 0.00 0.00 65 1015.8
20260503212525 17 229 0.0 0.0 0.00 0.00 0.00 65 1015.7
20260503212023 17 229 0.0 0.0 0.00 0.00 0.00 64 1015.7
20260503211525 17 229 1.6 3.2 0.00 0.00 0.00 65 1015.6
20260503210524 16 245 0.0 0.0 0.00 0.00 0.00 66 1015.6
20260503210027 17 283 0.0 0.0 0.00 0.00 0.00 67 1015.5
20260503205524 17 310 0.0 0.0 0.00 0.00 0.00 66 1015.5
20260503205023 17 310 0.0 0.0 0.00 0.00 0.00 65 1015.4
20260503204523 17 310 0.0 0.0 0.00 0.00 0.00 65 1015.5
20260503204023 17 310 0.0 0.0 0.00 0.00 0.00 65 1015.5
20260503203523 17 310 0.0 0.0 0.00 0.00 0.00 65 1015.5
20260503203024 17 310 0.0 0.0 0.00 0.00 0.00 65 1015.5
20260503202524 17 310 0.0 0.0 0.00 0.00 0.00 64 1015.6
20260503202024 18 310 0.0 0.0 0.00 0.00 0.00 62 1015.6
20260503201523 18 310 0.0 0.0 0.00 0.00 0.00 61 1015.6
20260503201023 18 310 0.0 0.0 0.00 0.00 0.00 61 1015.6
20260503200529 18 310 0.0 0.0 0.00 0.00 0.00 61 1015.6
20260503200023 18 310 0.0 0.0 0.00 0.00 0.00 60 1015.6
20260503194023 18 310 0.0 0.0 0.00 0.00 0.00 59 1015.4
20260503193524 18 310 0.0 0.0 0.00 0.00 0.00 58 1015.3
20260503192523 19 310 0.0 0.0 0.00 0.00 0.00 57 1015.3
20260503191524 19 310 1.6 1.6 0.00 0.00 0.00 57 1015.2
20260503191024 20 310 0.0 0.0 0.00 0.00 0.00 57 1015.2
20260503190023 20 310 0.0 1.6 0.00 0.00 0.00 57 1015.1
20260503185024 20 310 0.0 0.0 0.00 0.00 0.00 54 1015.1
20260503184039 21 310 0.0 0.0 0.00 0.00 0.00 53 1015.0
20260503183523 21 310 0.0 1.6 0.00 0.00 0.00 52 1015.0
20260503183023 21 310 1.6 1.6 0.00 0.00 0.00 52 1015.0
20260503182523 21 310 1.6 1.6 0.00 0.00 0.00 51 1014.9
20260503181524 22 310 0.0 0.0 0.00 0.00 0.00 48 1014.9
20260503181023 22 310 0.0 1.6 0.00 0.00 0.00 48 1014.8
20260503180525 23 310 0.0 1.6 0.00 0.00 0.00 45 1014.8
20260503180024 23 310 1.6 3.2 0.00 0.00 0.00 42 1014.7
20260503175524 23 310 3.2 3.2 0.00 0.00 0.00 41 1014.7
20260503175023 23 311 0.0 3.2 0.00 0.00 0.00 41 1014.6
20260503174024 24 290 3.2 4.8 0.00 0.00 0.00 40 1014.7
20260503173024 25 298 3.2 8.0 0.00 0.00 0.00 39 1014.7
20260503172523 25 298 4.8 4.8 0.00 0.00 0.00 39 1014.6
20260503172023 24 263 1.6 4.8 0.00 0.00 0.00 41 1014.7
20260503171525 24 243 0.0 1.6 0.00 0.00 0.00 46 1014.7
20260503171023 24 243 0.0 0.0 0.00 0.00 0.00 44 1014.7
20260503170523 24 243 0.0 1.6 0.00 0.00 0.00 44 1014.7
20260503150523 27 353 4.8 11.3 0.00 0.00 0.00 35 1015.6
20260503131023 26 255 6.4 8.0 0.00 0.00 0.00 37 1016.7
20260503130522 26 224 8.0 11.3 0.00 0.00 0.00 38 1016.7
20260503110522 24 199 4.8 9.7 0.00 0.00 0.00 40 1017.4
20260503081521 19 87 0.0 3.2 0.00 0.00 0.00 60 1018.6
20260503081022 19 65 3.2 4.8 0.00 0.00 0.00 65 1018.6
20260503080521 18 66 3.2 4.8 0.00 0.00 0.00 62 1018.6
20260503072021 17 46 1.6 4.8 0.00 0.00 0.00 69 1018.7
20260503071522 17 51 1.6 4.8 0.00 0.00 0.00 68 1018.7
20260503071022 17 96 3.2 8.0 0.00 0.00 0.00 69 1018.7
20260503070522 16 119 3.2 4.8 0.00 0.00 0.00 70 1018.7
20260503054021 12 261 0.0 0.0 0.00 0.00 0.00 79 1018.6
20260503053521 12 261 0.0 0.0 0.00 0.00 0.00 79 1018.6
20260503053028 12 261 0.0 0.0 0.00 0.00 0.00 80 1018.6
20260503052521 12 261 0.0 0.0 0.00 0.00 0.00 81 1018.6
20260503052021 11 267 0.0 0.0 0.00 0.00 0.00 82 1018.6
20260503051521 11 267 0.0 0.0 0.00 0.00 0.00 83 1018.6
20260503051021 11 267 0.0 0.0 0.00 0.00 0.00 84 1018.6
20260503050521 11 267 0.0 0.0 0.00 0.00 0.00 85 1018.6
20260503050022 10 267 0.0 0.0 0.00 0.00 0.00 87 1018.5
20260503045521 10 267 0.0 0.0 0.00 0.00 0.00 87 1018.5
20260503045021 10 267 0.0 0.0 0.00 0.00 0.00 87 1018.5
20260503044521 10 254 0.0 0.0 0.00 0.00 0.00 87 1018.5
20260503044021 10 232 0.0 0.0 0.00 0.00 0.00 88 1018.6